This demonstration page uses our WeatherBlox Daily Observations layout. Learn more.

Hourly Observations for May 12, 2016

Temp ( °F °C ) Dew Point ( °F °C ) Humidity (%) Winds ( mph kmh ) Pressure ( in mb ) Visibility ( mi km ) Precip ( " mm )
12:15 am 00:15 Clear 51 10.6 41 5.1 69 69 WNW 3 6 30.21 1023 10 16.0934 0 0
12:35 am 00:35 Clear 51 10.3 41 5 70 70 WNW 3 6 30.24 1024 10 16.0934 0 0
12:55 am 00:55 Clear 51 10.3 40 4.3 67 67 WNW 3 6 30.24 1024 10 16.0934 0 0
1:15 am 01:15 Clear 50 9.8 40 4.5 70 70 WNW 3 6 30.24 1024 10 16.0934 0 0
1:35 am 01:35 Clear 49 9.3 40 4.3 71 71 WNW 3 6 30.24 1024 10 16.0934 0 0
1:55 am 01:55 Clear 48 9 39 4.1 72 72 WNW 3 6 30.21 1023 10 16.0934 0 0
2:10 am 02:10 Clear 47 8.1 40 4.4 78 78 WNW 5 7 30.21 1023 10 16.0934 0 0
2:35 am 02:35 Clear 47 8.2 38 3.6 73 73 WNW 3 6 30.21 1023 10 16.0934 0 0
2:55 am 02:55 Clear 46 8 38 3.5 74 74 Calm 30.21 1023 10 16.0934 0 0
3:15 am 03:15 Clear 45 7.2 39 3.7 79 79 WNW 3 6 30.24 1024 10 16.0934 0 0
3:35 am 03:35 Clear 44 6.9 39 3.9 81 81 WNW 5 7 30.24 1024 10 16.0934 0 0
3:55 am 03:55 Clear 45 7.2 38 3.6 78 78 WNW 5 7 30.24 1024 10 16.0934 0 0
4:15 am 04:15 Clear 45 7.2 37 3 75 75 NW 3 6 30.24 1024 10 16.0934 0 0
4:35 am 04:35 Clear 44 6.9 38 3.1 77 77 WNW 3 6 30.24 1024 10 16.0934 0 0
4:55 am 04:55 Clear 44 6.5 37 3 79 79 WNW 3 6 30.24 1024 10 16.0934 0 0
5:15 am 05:15 Clear 43 6.1 37 3 81 81 WNW 3 6 30.24 1024 10 16.0934 0 0
5:35 am 05:35 Clear 42 5.7 37 3 83 83 WNW 3 6 30.27 1025 10 16.0934 0 0
5:55 am 05:55 Clear 41 5.1 37 2.7 85 85 NW 5 7 30.27 1025 10 16.0934 0 0
6:15 am 06:15 Clear 42 5.4 37 2.7 83 83 NW 3 6 30.27 1025 10 16.0934 0 0
6:35 am 06:35 Sunny 42 5.5 37 2.5 81 81 WNW 3 6 30.27 1025 10 16.0934 0 0
6:55 am 06:55 Sunny 42 5.6 37 2.5 81 81 WNW 6 9 30.27 1025 10 16.0934 0 0
7:15 am 07:15 Sunny 44 6.7 38 3.1 78 78 NW 7 11 30.27 1025 10 16.0934 0 0
7:35 am 07:35 Sunny 46 7.7 38 3.2 73 73 NW 7 11 30.27 1025 10 16.0934 0 0
7:55 am 07:55 Sunny 47 8.5 38 3.4 71 71 NW 7 11 30.24 1024 10 16.0934 0 0
8:15 am 08:15 Sunny 49 9.3 38 3.4 67 67 NW 8 13 30.24 1024 10 16.0934 0 0
8:35 am 08:35 Sunny 50 10.1 38 3.3 63 63 NW 8 13 30.27 1025 10 16.0934 0 0
8:55 am 08:55 Sunny 52 11 38 3.4 60 60 NW 9 15 30.27 1025 10 16.0934 0 0
9:15 am 09:15 Sunny 53 11.5 39 3.8 59 59 NW 7 11 30.27 1025 10 16.0934 0 0
9:35 am 09:35 Sunny 54 12.3 39 3.7 56 56 NW 13 20 30.24 1024 10 16.0934 0 0
9:55 am 09:55 Sunny 56 13.4 39 4 53 53 NW 10 17 30.24 1024 10 16.0934 0 0
10:15 am 10:15 Sunny 58 14.5 40 4.5 51 51 WNW 12 19 30.24 1024 10 16.0934 0 0
10:35 am 10:35 Sunny 59 15.2 36 2.3 42 42 NW 15 24 30.21 1023 10 16.0934 0 0
10:55 am 10:55 Sunny 61 15.9 35 1.4 38 38 NW 14 22 30.21 1023 10 16.0934 0 0
11:15 am 11:15 Sunny 62 16.4 32 0.2 33 33 WNW 12 19 30.21 1023 10 16.0934 0 0
11:35 am 11:35 Sunny 62 16.7 32 -0.1 32 32 WNW 17 28 30.21 1023 10 16.0934 0 0
11:55 am 11:55 Sunny 63 17.1 33 0.4 32 32 NW 16 26 30.21 1023 10 16.0934 0 0
12:15 pm 12:15 Sunny 63 17.4 33 0.5 32 32 NW 13 20 30.21 1023 10 16.0934 0 0
12:35 pm 12:35 Sunny 64 17.6 32 0.2 31 31 NW 16 26 30.21 1023 10 16.0934 0 0
12:55 pm 12:55 Sunny 64 17.9 32 0.2 30 30 WNW 8 13 30.18 1022 10 16.0934 0 0
1:15 pm 13:15 Sunny 65 18.2 32 0.1 30 30 NW 12 19 30.15 1021 10 16.0934 0 0
1:35 pm 13:35 Sunny 65 18.6 32 0.2 29 29 WNW 14 22 30.15 1021 10 16.0934 0 0
1:55 pm 13:55 Sunny 66 19 33 0.5 29 29 W 12 19 30.15 1021 10 16.0934 0 0
2:15 pm 14:15 Sunny 66 19.1 33 0.5 29 29 W 13 20 30.15 1021 10 16.0934 0 0
2:35 pm 14:35 Sunny 67 19.4 33 0.3 28 28 WNW 8 13 30.12 1020 10 16.0934 0 0
2:55 pm 14:55 Sunny 68 19.9 33 0.5 27 27 WNW 13 20 30.12 1020 10 16.0934 0 0
3:15 pm 15:15 Sunny 69 20.7 34 1.1 27 27 W 15 24 30.12 1020 10 16.0934 0 0
3:35 pm 15:35 Partly Cloudy 69 20.7 33 0.8 27 27 W 14 22 30.12 1020 10 16.0934 0 0
3:55 pm 15:55 Partly Cloudy 70 21.1 35 1.7 28 28 W 14 22 30.12 1020 10 16.0934 0 0
4:15 pm 16:15 Sunny 70 21.1 34 1.3 27 27 WNW 16 26 30.06 1018 10 16.0934 0 0
4:35 pm 16:35 Sunny 70 21.2 33 0.8 26 26 WNW 12 19 30.06 1018 10 16.0934 0 0
4:55 pm 16:55 Partly Cloudy 70 21.3 34 1.1 26 26 W 14 22 30.06 1018 10 16.0934 0 0
5:15 pm 17:15 Partly Cloudy 71 21.5 33 0.5 25 25 WSW 12 19 30.06 1018 10 16.0934 0 0
5:35 pm 17:35 Sunny 71 21.5 33 0.3 24 24 W 10 17 30.03 1017 10 16.0934 0 0
5:55 pm 17:55 Sunny 71 21.5 34 1.3 26 26 W 13 20 30.03 1017 10 16.0934 0 0
6:15 pm 18:15 Sunny 71 21.5 33 0.8 25 25 W 9 15 30.03 1017 10 16.0934 0 0
6:35 pm 18:35 Sunny 71 21.5 35 1.5 27 27 W 10 17 30.03 1017 10 16.0934 0 0
6:55 pm 18:55 Sunny 70 21.2 35 1.6 27 27 W 12 19 30.03 1017 10 16.0934 0 0
7:15 pm 19:15 Sunny 70 20.9 34 1.3 27 27 W 10 17 30.03 1017 10 16.0934 0 0
7:35 pm 19:35 Sunny 69 20.5 36 2.1 30 30 WNW 6 9 30.06 1018 10 16.0934 0 0
7:55 pm 19:55 Sunny 68 20 37 2.9 32 32 W 5 7 30.06 1018 10 16.0934 0 0
8:15 pm 20:15 Sunny 67 19.4 37 2.8 33 33 Calm 30.06 1018 10 16.0934 0 0
8:35 pm 20:35 Sunny 67 19.3 37 2.6 33 33 Calm 30.06 1018 10 16.0934 0 0
8:55 pm 20:55 Clear 65 18.6 37 2.7 35 35 Calm 30.06 1018 10 16.0934 0 0
9:15 pm 21:15 Clear 63 17.2 42 5.3 46 46 Calm 30.06 1018 10 16.0934 0 0
9:35 pm 21:35 Clear 61 16 42 5.4 50 50 S 6 9 30.09 1019 10 16.0934 0 0
9:55 pm 21:55 Clear 60 15.7 41 5.1 50 50 S 3 6 30.09 1019 10 16.0934 0 0
10:15 pm 22:15 Clear 60 15.5 41 5 50 50 Calm 30.09 1019 10 16.0934 0 0
10:35 pm 22:35 Clear 58 14.2 42 5.3 55 55 S 3 6 30.09 1019 10 16.0934 0 0
10:55 pm 22:55 Clear 57 13.7 42 5.4 58 58 S 3 6 30.12 1020 10 16.0934 0 0
11:15 pm 23:15 Clear 56 13.1 42 5.5 60 60 S 5 7 30.12 1020 10 16.0934 0 0
11:35 pm 23:35 Clear 56 13.1 42 5.8 61 61 S 6 9 30.12 1020 10 16.0934 0 0
11:55 pm 23:55 Clear 54 12.3 43 5.9 65 65 S 6 9 30.12 1020 10 16.0934 0 0

Powered by AerisWeather